Starlink 34088

operational
NORAD ID: 64025 Int'l Des: 2025-102 Owner: SPXS Country: US Constellation: starlink
LEOCIRCULAR

关于 Starlink 34088

正在加载描述...

实时位置

正在加载3D地球...

即将过境

高度历史

Altitude vs Time

uPlot chart will show altitude changes over time

两行轨道根数

1 64025U 25102D 26095.56208254 .00007278 00000-0 61676-3 0 9994
2 64025 70.0025 46.8450 0003131 272.1300 87.9500 14.98351163 49983
Epoch: Apr 5, 2026 • Age: 8 hours

当前状态

高度 585.7 km
速度 7.57 km/s
星下点 -41.48°S, 126.36°W
发射日期 May 16, 2025
运行时间 0.8 years
类型 internet

技术详情

分类 Payload
质量 575.00 kg
干质量 530.00 kg
总质量 575.00 kg
长度 0.30 m
直径 4.10 m
跨度 29.00 m
形状 Box + pan
制造商 SPXS
平台类型 Starlink V2MO
阶段状态 In Orbit
所有者/国家 SPXS/US

大型星座

Loading constellations...